Location: Middelsbur
(53.6609°N, 7.5020°E)
Time: 23:52:46
(UTC+00:00)

Cosmos 2058 - Pass Details

Date: 06 July 2020
Orbit: 562 x 584 km, 82.5° (Epoch: 14 August)

Event Time Altitude Azimuth Distance (km) Brightness Sun altitude
Exits shadow 21:27:39 12° 161° (SSE) 1,782 4.8 -9.0°
Maximum altitude 21:31:16 40° 93° (E) 858 3.6 -9.2°
Drops below altitude 10° 21:35:10 10° 24° (NNE) 1,887 6.1 -9.5°
Sets 21:37:26 0° 17° (NNE) 2,786 7.2 -9.7°
